TimeCST,TemperatureF,Dew PointF,Humidity,Sea Level PressureIn,VisibilityMPH,Wind Direction,Wind SpeedMPH,Gust SpeedMPH,PrecipitationIn,Events,Conditions,WindDirDegrees,DateUTC
12:53 AM,35.1,28.9,78,30.12,10.0,North,9.2,-,N/A,,Partly Cloudy,350,2012-01-12 06:53:00
1:53 AM,33.1,27.0,78,30.14,10.0,North,11.5,-,N/A,,Overcast,10,2012-01-12 07:53:00
2:53 AM,33.1,25.0,72,30.16,10.0,NNE,13.8,-,N/A,,Mostly Cloudy,20,2012-01-12 08:53:00
4:53 AM,30.9,23.0,72,30.20,10.0,NNE,9.2,-,N/A,,Mostly Cloudy,20,2012-01-12 10:53:00
5:53 AM,32.0,23.0,69,30.24,10.0,NNE,10.4,-,N/A,,Overcast,30,2012-01-12 11:53:00
6:09 AM,32.0,24.8,75,30.30,10.0,NNE,9.2,-,N/A,,Overcast,20,2012-01-12 12:09:00
6:35 AM,30.2,23.0,75,30.31,10.0,NNE,9.2,-,N/A,,Overcast,20,2012-01-12 12:35:00
6:53 AM,30.9,21.9,69,30.28,10.0,NE,6.9,-,N/A,,Overcast,40,2012-01-12 12:53:00
7:53 AM,30.9,21.0,67,30.30,10.0,NE,5.8,-,N/A,,Overcast,50,2012-01-12 13:53:00
8:53 AM,30.9,19.9,64,30.32,10.0,NNE,6.9,-,N/A,,Overcast,30,2012-01-12 14:53:00
9:53 AM,32.0,19.9,61,30.34,10.0,NNE,10.4,-,N/A,,Clear,30,2012-01-12 15:53:00
10:53 AM,33.1,19.0,56,30.37,10.0,NNE,4.6,-,N/A,,Clear,30,2012-01-12 16:53:00
11:53 AM,34.0,19.9,56,30.33,10.0,Variable,5.8,-,N/A,,Clear,0,2012-01-12 17:53:00
12:53 PM,34.0,19.0,54,30.28,10.0,ENE,4.6,-,N/A,,Clear,60,2012-01-12 18:53:00
1:53 PM,35.1,19.0,52,30.26,10.0,Calm,Calm,-,N/A,,Clear,0,2012-01-12 19:53:00
2:53 PM,36.0,18.0,48,30.25,10.0,NE,3.5,-,N/A,,Clear,50,2012-01-12 20:53:00
3:53 PM,37.0,19.0,48,30.23,10.0,Calm,Calm,-,N/A,,Clear,0,2012-01-12 21:53:00
4:53 PM,37.9,19.0,47,30.22,10.0,Calm,Calm,-,N/A,,Clear,0,2012-01-12 22:53:00
5:53 PM,37.0,19.9,50,30.21,10.0,ESE,3.5,-,N/A,,Clear,110,2012-01-12 23:53:00
6:53 PM,34.0,24.1,67,30.22,10.0,NE,4.6,-,N/A,,Clear,50,2012-01-13 00:53:00
7:53 PM,34.0,23.0,64,30.20,10.0,East,5.8,-,N/A,,Clear,90,2012-01-13 01:53:00
8:53 PM,34.0,21.9,61,30.21,10.0,ESE,5.8,-,N/A,,Clear,120,2012-01-13 02:53:00
9:53 PM,34.0,21.0,59,30.20,10.0,ESE,6.9,-,N/A,,Clear,110,2012-01-13 03:53:00
10:53 PM,35.1,21.0,57,30.20,10.0,ESE,3.5,-,N/A,,Clear,120,2012-01-13 04:53:00
11:53 PM,33.1,25.0,72,30.21,10.0,East,4.6,-,N/A,,Clear,80,2012-01-13 05:53:00